TimeCST,TemperatureF,Dew PointF,Humidity,Sea Level PressureIn,VisibilityMPH,Wind Direction,Wind SpeedMPH,Gust SpeedMPH,PrecipitationIn,Events,Conditions,WindDirDegrees,DateUTC
12:15 AM,35.6,30.2,81,29.75,10.0,WNW,8.1,-,N/A,,Clear,290,2013-02-14 06:15:00
12:35 AM,35.6,30.2,81,29.75,10.0,West,6.9,-,N/A,,Clear,280,2013-02-14 06:35:00
12:55 AM,35.6,30.2,81,29.75,10.0,WSW,5.8,-,N/A,,Scattered Clouds,250,2013-02-14 06:55:00
1:15 AM,33.8,30.2,87,29.76,10.0,West,8.1,-,N/A,,Partly Cloudy,260,2013-02-14 07:15:00
1:35 AM,33.8,30.2,87,29.77,10.0,WSW,5.8,-,N/A,,Mostly Cloudy,250,2013-02-14 07:35:00
1:55 AM,33.8,30.2,87,29.77,10.0,West,6.9,-,N/A,,Overcast,260,2013-02-14 07:55:00
2:15 AM,33.8,30.2,87,29.78,10.0,West,8.1,-,N/A,,Overcast,270,2013-02-14 08:15:00
2:35 AM,35.6,32.0,87,29.78,10.0,West,9.2,-,N/A,,Overcast,280,2013-02-14 08:35:00
2:55 AM,35.6,32.0,87,29.80,10.0,WNW,15.0,21.9,N/A,,Overcast,300,2013-02-14 08:55:00
3:15 AM,35.6,30.2,81,29.79,10.0,WNW,13.8,-,N/A,,Overcast,300,2013-02-14 09:15:00
3:35 AM,35.6,30.2,81,29.79,10.0,NW,15.0,24.2,N/A,,Scattered Clouds,310,2013-02-14 09:35:00
3:55 AM,35.6,30.2,81,29.80,10.0,NW,18.4,-,N/A,,Mostly Cloudy,320,2013-02-14 09:55:00
4:15 AM,35.6,28.4,75,29.81,10.0,NW,16.1,28.8,N/A,,Overcast,320,2013-02-14 10:15:00
4:35 AM,33.8,28.4,81,29.82,10.0,NW,16.1,21.9,N/A,,Scattered Clouds,320,2013-02-14 10:35:00
4:55 AM,33.8,28.4,81,29.83,10.0,NNW,18.4,-,N/A,,Mostly Cloudy,330,2013-02-14 10:55:00
5:15 AM,33.8,28.4,81,29.85,10.0,NNW,9.2,16.1,N/A,,Overcast,340,2013-02-14 11:15:00
5:35 AM,33.8,28.4,81,29.85,10.0,NW,10.4,-,N/A,,Overcast,320,2013-02-14 11:35:00
5:55 AM,33.8,28.4,81,29.86,10.0,NNW,17.3,-,N/A,,Overcast,330,2013-02-14 11:55:00
6:15 AM,32.0,26.6,80,29.86,10.0,NNW,12.7,-,N/A,,Overcast,330,2013-02-14 12:15:00
6:35 AM,32.0,26.6,80,29.88,10.0,NW,10.4,-,N/A,,Overcast,320,2013-02-14 12:35:00
6:55 AM,30.2,26.6,86,29.89,10.0,NW,5.8,-,N/A,,Overcast,320,2013-02-14 12:55:00
7:15 AM,28.4,26.6,93,29.91,10.0,West,4.6,-,N/A,,Overcast,280,2013-02-14 13:15:00
7:35 AM,28.4,24.8,86,29.91,10.0,West,5.8,-,N/A,,Mostly Cloudy,260,2013-02-14 13:35:00
7:55 AM,30.2,26.6,86,29.91,10.0,West,4.6,-,N/A,,Scattered Clouds,270,2013-02-14 13:55:00
8:15 AM,30.2,26.6,86,29.91,10.0,West,5.8,-,N/A,,Clear,260,2013-02-14 14:15:00
8:35 AM,32.0,28.4,87,29.92,10.0,West,11.5,-,N/A,,Partly Cloudy,270,2013-02-14 14:35:00
8:55 AM,33.8,28.4,81,29.92,10.0,West,9.2,-,N/A,,Mostly Cloudy,280,2013-02-14 14:55:00
9:15 AM,33.8,28.4,81,29.93,10.0,WNW,10.4,-,N/A,,Overcast,300,2013-02-14 15:15:00
9:35 AM,35.6,30.2,81,29.92,10.0,West,11.5,-,N/A,,Overcast,280,2013-02-14 15:35:00
9:55 AM,35.6,28.4,75,29.93,10.0,West,11.5,-,N/A,,Overcast,280,2013-02-14 15:55:00
10:15 AM,35.6,30.2,81,29.93,10.0,West,9.2,-,N/A,,Mostly Cloudy,280,2013-02-14 16:15:00
10:35 AM,37.4,30.2,75,29.94,10.0,WNW,11.5,-,N/A,,Mostly Cloudy,290,2013-02-14 16:35:00
10:55 AM,39.2,28.4,65,29.94,10.0,WNW,17.3,-,N/A,,Mostly Cloudy,290,2013-02-14 16:55:00
11:15 AM,39.2,26.6,61,29.94,10.0,NW,21.9,31.1,N/A,,Mostly Cloudy,310,2013-02-14 17:15:00
11:35 AM,39.2,26.6,61,29.95,10.0,NW,18.4,27.6,N/A,,Mostly Cloudy,310,2013-02-14 17:35:00
11:55 AM,41.0,23.0,49,29.95,10.0,NW,20.7,26.5,N/A,,Scattered Clouds,310,2013-02-14 17:55:00
12:15 PM,41.0,23.0,49,29.94,10.0,NW,19.6,29.9,N/A,,Mostly Cloudy,320,2013-02-14 18:15:00
12:35 PM,41.0,23.0,49,29.95,10.0,NW,16.1,25.3,N/A,,Mostly Cloudy,310,2013-02-14 18:35:00
12:55 PM,39.2,23.0,52,29.94,10.0,WNW,18.4,26.5,N/A,,Overcast,290,2013-02-14 18:55:00
1:15 PM,39.2,24.8,56,29.94,10.0,WNW,17.3,27.6,N/A,,Overcast,300,2013-02-14 19:15:00
1:35 PM,39.2,23.0,52,29.95,10.0,NW,17.3,27.6,N/A,,Overcast,310,2013-02-14 19:35:00
1:55 PM,39.2,23.0,52,29.96,10.0,NW,18.4,25.3,N/A,,Overcast,310,2013-02-14 19:55:00
2:15 PM,39.2,23.0,52,29.97,10.0,WNW,18.4,29.9,N/A,,Overcast,290,2013-02-14 20:15:00
2:35 PM,39.2,24.8,56,29.98,10.0,WNW,20.7,-,N/A,,Overcast,300,2013-02-14 20:35:00
2:55 PM,37.4,24.8,60,29.99,10.0,WNW,19.6,27.6,N/A,,Overcast,300,2013-02-14 20:55:00
3:15 PM,37.4,26.6,65,30.00,10.0,WNW,21.9,27.6,N/A,,Mostly Cloudy,300,2013-02-14 21:15:00
3:35 PM,37.4,26.6,65,30.00,10.0,NW,17.3,-,N/A,,Overcast,310,2013-02-14 21:35:00
3:55 PM,37.4,26.6,65,30.01,10.0,WNW,17.3,24.2,N/A,,Overcast,300,2013-02-14 21:55:00
4:15 PM,37.4,26.6,65,30.02,10.0,NNW,18.4,24.2,N/A,,Mostly Cloudy,340,2013-02-14 22:15:00
4:35 PM,35.6,26.6,70,30.03,10.0,NW,16.1,-,N/A,,Overcast,310,2013-02-14 22:35:00
4:55 PM,35.6,26.6,70,30.04,10.0,NNW,15.0,-,N/A,,Mostly Cloudy,330,2013-02-14 22:55:00
5:15 PM,33.8,24.8,70,30.05,10.0,NNW,11.5,20.7,N/A,,Overcast,330,2013-02-14 23:15:00
5:35 PM,33.8,26.6,75,30.06,10.0,North,16.1,-,N/A,,Overcast,350,2013-02-14 23:35:00
5:55 PM,32.0,24.8,75,30.06,10.0,North,12.7,-,N/A,,Overcast,350,2013-02-14 23:55:00
6:15 PM,32.0,24.8,75,30.08,10.0,NNW,10.4,-,N/A,,Overcast,340,2013-02-15 00:15:00
6:35 PM,32.0,24.8,75,30.09,10.0,North,12.7,-,N/A,,Overcast,360,2013-02-15 00:35:00
6:55 PM,30.2,23.0,75,30.10,10.0,North,12.7,-,N/A,,Overcast,10,2013-02-15 00:55:00
7:15 PM,30.2,21.2,69,30.12,10.0,North,13.8,20.7,N/A,,Overcast,360,2013-02-15 01:15:00
7:55 PM,28.4,15.8,59,30.14,10.0,North,13.8,21.9,N/A,,Overcast,350,2013-02-15 01:55:00
8:15 PM,26.6,14.0,59,30.15,10.0,North,11.5,19.6,N/A,,Overcast,360,2013-02-15 02:15:00
8:35 PM,26.6,14.0,59,30.16,10.0,North,18.4,-,N/A,,Overcast,350,2013-02-15 02:35:00
8:55 PM,26.6,12.2,55,30.17,10.0,North,15.0,23.0,N/A,,Overcast,350,2013-02-15 02:55:00
9:15 PM,24.8,12.2,59,30.18,10.0,North,15.0,23.0,N/A,,Overcast,350,2013-02-15 03:15:00
9:35 PM,24.8,14.0,64,30.19,10.0,North,15.0,-,N/A,,Overcast,350,2013-02-15 03:35:00
9:55 PM,23.0,14.0,68,30.20,10.0,North,19.6,-,N/A,,Mostly Cloudy,350,2013-02-15 03:55:00
10:15 PM,21.2,12.2,68,30.21,10.0,NNW,11.5,-,N/A,,Partly Cloudy,340,2013-02-15 04:15:00
10:35 PM,21.2,10.4,63,30.21,10.0,NNW,10.4,20.7,N/A,,Clear,340,2013-02-15 04:35:00
10:55 PM,21.2,10.4,63,30.22,10.0,NNW,10.4,18.4,N/A,,Clear,340,2013-02-15 04:55:00
11:15 PM,21.2,8.6,58,30.23,10.0,NNW,13.8,-,N/A,,Clear,340,2013-02-15 05:15:00
11:35 PM,19.4,8.6,63,30.24,10.0,NNW,9.2,20.7,N/A,,Clear,340,2013-02-15 05:35:00
11:55 PM,19.4,8.6,63,30.24,10.0,North,11.5,-,N/A,,Partly Cloudy,360,2013-02-15 05:55:00